Weather History for KTEB - September, 2013

Change the Weather History Date:

Monday, September 9, 2013

  Actual Average Record
Temperature  
Mean Temperature 63 °F -  
Max Temperature 73 °F 78 °F 96 °F (2002)
Min Temperature 54 °F 59 °F 54 °F (1998)
Degree Days  
Heating Degree Days 2    
Growing Degree Days 13 (Base 50)    
Moisture  
Dew Point 48 °F    
Average Humidity 56    
Maximum Humidity 73    
Minimum Humidity 38    
Precipitation  
Precipitation 0.00 in - - ()
Sea Level Pressure  
Sea Level Pressure 30.18 in    
Wind  
Wind Speed 5 mph (SSE)    
Max Wind Speed 12 mph    
Max Gust Speed 16 mph    
Visibility 10 miles    
Events      
Averages and records for this station are not official NWS values.
T = Trace of Precipitation, MM = Missing Value Source: NWS Daily Summary

Daily Weather History Graph

Daily Weather History Graph

Search for Another Location

Airport or City:

Trip Planner

Search our weather history database for the weather conditions in past years. The results will help you decide how hot, cold, wet, or windy it might be!

Date:

Astronomy

Sep. 09, 2013 Rise Set
Actual Time 6:31 AM EDT 7:15 PM EDT
Civil Twilight 6:03 AM EDT 7:42 PM EDT
Nautical Twilight 5:30 AM EDT 8:15 PM EDT
Astronomical Twilight 4:56 AM EDT 8:49 PM EDT
Moon 10:52 AM EDT (9/9) 9:27 PM EDT (9/9)
Length of Visible Light 13h 39m
Length of Day
12h 43m
Waxing Crescent, 19% of the Moon is Illuminated
Sep 9
Waxing Crescent
Sep 12
First Quarter
Sep 19
Full
Sep 26
Last Quarter
Oct 4
New

Hourly Weather History & Observations

Time (EDT) Temp. Dew Point Humidity Pressure Visibility Wind Dir Wind Speed Gust Speed Precip Events Conditions
12:51 AM 60.1 °F 42.1 °F 51% 30.09 in 10.0 mi North 5.8 mph - N/A   Clear
1:51 AM 59.0 °F 42.1 °F 53% 30.11 in 10.0 mi North 3.5 mph - N/A   Clear
2:51 AM 57.9 °F 42.1 °F 56% 30.12 in 10.0 mi Calm Calm - N/A   Clear
3:51 AM 55.9 °F 43.0 °F 62% 30.14 in 10.0 mi North 3.5 mph - N/A   Clear
4:51 AM 55.9 °F 41.0 °F 57% 30.16 in 10.0 mi North 3.5 mph - N/A   Clear
5:51 AM 55.0 °F 43.0 °F 64% 30.19 in 10.0 mi Calm Calm - N/A   Clear
6:51 AM 54.0 °F 45.0 °F 72% 30.22 in 10.0 mi North 5.8 mph - N/A   Clear
7:51 AM 57.0 °F 44.1 °F 62% 30.23 in 10.0 mi NNE 4.6 mph - N/A   Clear
8:51 AM 62.1 °F 42.1 °F 48% 30.23 in 10.0 mi NE 5.8 mph - N/A   Clear
9:51 AM 64.9 °F 44.1 °F 47% 30.24 in 10.0 mi NE 5.8 mph - N/A   Clear
10:51 AM 66.0 °F 46.0 °F 48% 30.24 in 10.0 mi Calm Calm - N/A   Clear
11:51 AM 66.9 °F 45.0 °F 45% 30.23 in 10.0 mi ESE 4.6 mph - N/A   Clear
12:51 PM 71.1 °F 44.1 °F 38% 30.21 in 10.0 mi WSW 9.2 mph - N/A   Clear
1:51 PM 71.1 °F 46.0 °F 41% 30.20 in 10.0 mi SSW 11.5 mph - N/A   Clear
2:51 PM 70.0 °F 51.1 °F 51% 30.19 in 10.0 mi SSW 6.9 mph 16.1 mph N/A   Clear
3:51 PM 70.0 °F 52.0 °F 53% 30.19 in 10.0 mi South 4.6 mph - N/A   Clear
4:51 PM 72.0 °F 52.0 °F 49% 30.17 in 10.0 mi South 8.1 mph - N/A   Clear
5:51 PM 70.0 °F 51.1 °F 51% 30.16 in 10.0 mi South 9.2 mph - N/A   Mostly Cloudy
6:51 PM 68.0 °F 51.1 °F 55% 30.17 in 10.0 mi South 10.4 mph - N/A   Overcast
7:51 PM 66.9 °F 53.1 °F 61% 30.16 in 10.0 mi South 8.1 mph - N/A   Clear
8:51 PM 66.9 °F 55.0 °F 66% 30.17 in 10.0 mi South 11.5 mph - N/A   Clear
9:51 PM 66.9 °F 55.9 °F 68% 30.16 in 10.0 mi South 9.2 mph - N/A   Clear
10:51 PM 66.9 °F 57.9 °F 73% 30.16 in 10.0 mi South 6.9 mph - N/A   Mostly Cloudy
11:51 PM 68.0 °F 59.0 °F 73% 30.16 in 10.0 mi South 11.5 mph - N/A   Mostly Cloudy